Cloud_Cover
100 100 90 5 100 100 100 100 100 100 100 99 7 6 5 34 4 5 3 0 0 0 28 100 100 100 10 2 12 100 98 56 100 100 5 5 5 5 9 47 92 100 100 100
100 98 99 100 100 100 100 100 100 100 100 100 100 100 100 69 2 5 0 0 0 5 45 100 100 100 100 12 12 100 100 10 85 100 18 5 5 5 12 5 5 13 80 100
100 6 100 100 98 41 63 88 100 100 100 100 100 100 100 100 69 4 0 0 4 82 64 95 100 100 94 27 7 100 100 75 5 100 100 42 11 12 5 5 5 69 85 100
100 99 100 100 100 100 64 8 100 100 100 48 100 30 39 28 2 0 4 2 5 5 5 2 74 100 100 96 23 100 100 96 36 64 100 100 18 5 6 26 6 22 48 100
100 100 100 99 8 96 10 100 100 100 100 100 100 23 7 35 0 5 5 4 0 45 41 0 4 49 32 98 100 62 100 100 100 87 100 100 100 5 66 32 19 100 82 53
100 100 100 100 100 100 100 100 100 100 100 100 6 28 1 42 3 5 0 2 5 60 98 32 4 32 46 19 83 100 100 100 100 100 100 99 100 100 72 7 5 50 64 92
100 100 100 100 100 100 100 100 100 100 100 72 26 100 0 88 1 34 33 5 12 68 26 3 0 5 5 6 14 12 100 87 100 68 97 100 100 100 100 62 17 100 100 100
100 100 100 100 100 100 100 100 100 100 83 25 95 100 0 100 100 100 99 53 12 0 0 0 0 0 5 4 9 100 93 91 71 100 100 100 100 100 100 100 63 100 100 100
100 100 100 100 100 100 100 100 100 100 100 100 100 100 100 100 100 85 96 100 100 75 0 0 0 0 5 5 1 100 100 87 38 100 100 100 100 100 100 98 66 100 100 100
100 100 100 100 100 100 100 100 100 100 100 100 100 100 100 100 100 100 97 34 100 13 0 0 0 0 5 5 4 81 97 66 10 99 86 92 99 100 100 100 98 100 100 100
100 100 100 100 100 100 100 100 100 100 100 100 100 99 100 100 100 100 100 100 100 5 0 0 4 1 9 87 9 25 66 5 5 21 63 95 100 100 100 100 100 100 100 100
100 100 100 100 100 100 100 100 100 100 100 100 100 100 100 100 100 100 100 100 100 66 10 0 0 2 45 88 79 91 100 40 6 63 100 100 100 100 100 100 100 100 100 79
100 100 100 100 100 100 100 100 100 100 100 100 100 99 100 100 100 100 100 100 100 84 42 22 0 0 1 76 91 96 42 100 81 90 100 100 100 100 100 100 100 100 97 99
100 100 100 100 100 100 100 100 100 100 100 100 100 86 100 100 67 100 100 100 100 100 50 6 1 0 0 17 100 99 99 100 100 100 100 100 100 100 100 100 100 100 96 100
100 100 100 100 100 100 100 100 100 100 100 100 99 100 99 99 100 95 80 100 100 100 60 4 0 2 4 5 38 100 100 100 100 100 100 100 100 100 100 100 100 100 100 100
100 100 100 100 100 100 100 100 100 91 100 83 100 100 100 70 100 100 100 100 98 100 90 16 0 74 2 48 13 32 100 100 100 100 100 100 100 100 100 100 100 100 100 100
100 100 100 100 100 100 100 100 100 100 100 100 100 100 100 84 68 82 69 77 94 100 100 99 18 5 100 11 5 40 85 100 100 100 100 100 100 100 100 100 100 100 99 99
97 100 100 100 100 100 100 100 100 100 100 100 100 100 100 100 100 80 82 57 28 48 100 100 100 93 82 97 11 5 50 100 100 100 100 100 100 100 100 100 100 100 100 100
99 100 100 100 100 100 100 100 100 100 100 100 100 100 100 100 100 99 16 100 79 74 100 100 100 100 100 100 100 89 97 93 100 100 100 100 100 100 100 100 100 100 100 94
15 91 100 100 100 100 100 100 100 100 100 100 100 100 100 100 100 100 8 5 5 33 84 100 100 100 100 12 100 100 100 100 100 100 100 100 100 100 100 100 100 100 100 100
70 9 77 54 98 100 100 100 100 100 100 100 100 100 100 100 99 100 5 5 77 11 60 100 100 100 100 100 82 94 100 100 100 100 100 100 100 100 100 100 100 100 100 100
100 88 100 73 100 79 100 100 100 100 100 100 100 100 100 100 96 100 88 12 58 15 5 83 100 100 63 60 100 100 100 100 100 100 100 100 100 100 100 100 100 100 100 100
90 76 98 95 6 0 0 15 100 92 100 100 100 100 100 100 100 100 90 100 30 100 16 5 62 70 99 5 99 100 100 100 100 100 100 100 100 100 100 100 100 100 100 100
69 58 91 100 0 3 23 100 100 100 76 26 60 94 100 100 100 100 98 75 95 28 77 91 97 100 100 38 10 61 100 100 100 100 100 100 100 100 100 100 100 100 100 100
82 100 100 92 4 95 16 100 100 84 100 34 5 10 59 72 88 100 100 70 17 54 5 5 85 100 100 100 64 51 42 47 100 100 100 100 100 100 100 100 100 100 100 100
100 97 100 73 25 100 64 95 100 99 100 83 0 19 84 36 52 100 56 25 38 11 5 29 12 100 100 100 100 69 100 37 30 100 100 100 100 100 100 100 100 100 99 100